Wind_Speed
16 11 16 19 17 16 6 9 8 12 5 4 7 14 12 11 11 9 8 10 10 11 12 10 10 8 7 7 9 11 12 14 15 14 15 15 14 13 12 13 14 15 16 17
14 18 19 15 11 13 9 10 9 8 6 8 10 10 11 10 9 9 10 10 12 12 9 10 9 7 7 9 9 10 12 13 15 15 15 15 13 13 12 14 15 16 16 17
21 11 23 10 12 13 13 13 9 6 9 9 13 9 11 8 10 10 10 10 12 13 11 9 8 8 9 8 8 10 12 13 14 16 15 15 14 14 15 16 17 18 17 17
21 19 6 13 15 13 14 15 10 8 9 9 19 3 16 13 10 10 11 11 13 12 10 10 9 9 8 7 8 9 11 13 14 14 15 16 15 16 16 17 18 18 18 18
18 20 13 14 14 14 12 1 8 11 12 12 17 10 11 14 10 12 13 12 12 10 9 9 8 9 7 6 7 9 10 12 13 13 14 15 15 15 16 18 19 19 18 18
20 14 15 16 11 12 8 6 6 7 13 11 3 10 15 9 14 16 14 14 14 12 9 9 9 7 8 6 7 8 10 11 11 13 13 14 14 15 17 20 20 21 20 20
21 14 13 11 10 9 11 12 8 10 11 7 2 6 9 9 5 20 20 17 15 13 10 10 9 8 6 6 7 9 10 11 12 13 14 14 14 15 17 19 20 21 22 22
17 19 18 13 14 11 16 15 12 8 7 5 8 4 6 7 12 21 19 20 16 14 11 8 8 6 5 5 6 10 11 12 12 14 14 14 14 16 17 19 20 21 22 23
18 16 20 19 16 15 13 15 9 10 8 7 3 10 9 12 19 19 20 18 16 14 11 10 8 6 5 4 8 10 11 12 13 14 14 15 15 16 18 19 20 22 23 25
11 13 21 12 14 12 8 12 9 10 12 11 5 9 8 13 19 18 17 16 15 13 11 10 7 6 5 4 6 8 11 12 13 14 14 15 16 17 19 20 22 23 24 24
8 14 12 13 14 16 12 10 9 9 5 7 10 7 6 15 16 16 15 15 14 12 10 9 7 6 4 5 7 10 11 13 13 13 14 16 18 18 19 21 23 24 24 25
13 11 12 18 18 11 11 19 16 8 5 2 6 5 0 15 16 16 15 14 13 11 10 9 7 5 6 7 8 10 11 12 13 14 15 16 18 19 20 22 23 24 24 24
13 8 11 14 7 10 10 6 6 1 6 12 5 7 8 15 16 15 15 14 13 11 10 8 8 6 4 6 8 10 11 12 13 14 16 17 19 20 21 23 23 24 24 24
10 9 13 11 16 14 14 9 11 7 6 3 3 19 16 16 17 16 15 14 13 11 9 10 6 4 7 7 8 10 11 12 14 15 16 18 19 21 22 23 23 24 24 23
11 10 4 4 8 14 13 11 7 8 3 6 14 16 18 17 17 16 15 14 13 11 8 7 5 7 6 6 7 9 10 12 14 16 17 18 20 20 21 22 23 23 23 23
7 6 10 7 7 9 8 6 5 5 4 9 15 17 17 17 16 16 15 14 12 10 9 7 8 7 7 7 7 8 10 13 14 16 17 18 20 21 21 22 23 23 23 24
10 12 10 6 10 10 7 7 7 6 2 13 16 18 20 18 17 16 15 13 13 11 9 9 8 8 6 7 7 9 10 12 14 16 17 19 20 20 21 21 22 24 24 24
12 14 5 8 10 8 6 4 8 10 11 10 21 22 19 18 16 15 14 14 13 12 11 11 9 8 6 6 8 8 10 12 14 16 17 19 20 20 20 21 22 23 24 25
14 8 6 6 9 6 7 9 13 15 12 15 19 21 20 19 18 14 14 13 14 14 13 12 10 8 7 7 8 9 10 12 14 16 17 19 19 19 20 22 22 23 24 25
13 6 5 9 10 6 6 17 13 16 9 19 23 23 23 21 13 11 15 18 18 17 15 13 11 9 8 7 8 9 11 13 15 16 17 17 18 18 19 21 22 23 23 24
12 11 9 9 8 4 14 17 14 13 11 23 22 23 22 14 11 21 21 19 19 18 16 14 11 10 8 7 8 9 11 13 14 14 15 17 17 17 19 20 21 23 23 24
12 8 7 9 8 6 16 16 11 9 22 25 22 22 17 21 24 23 20 21 21 19 17 13 12 10 8 7 8 9 11 11 12 14 14 16 16 17 19 20 22 24 26 26
9 5 6 3 2 9 19 8 10 20 24 23 23 22 22 23 23 22 19 21 20 19 16 14 13 11 9 9 9 9 10 10 12 13 14 15 15 16 18 21 22 25 26 28
3 3 5 8 9 17 13 13 14 21 22 24 24 24 24 24 23 22 19 22 20 18 17 15 13 11 9 9 9 8 9 8 9 11 12 13 14 14 15 19 21 21 25 25
2 10 11 13 15 13 11 14 21 22 23 25 24 25 25 25 22 23 20 22 21 19 17 14 13 11 9 8 8 8 9 9 9 10 12 12 12 13 13 12 13 17 17 18
8 13 7 7 20 8 18 19 24 26 25 26 26 24 29 30 23 28 24 23 22 20 18 16 14 12 9 7 7 7 8 9 8 9 11 11 12 12 13 13 13 14 20 18
Wind_Direction
200 219 222 231 226 258 317 291 261 101 92 110 115 140 147 146 124 137 130 123 115 116 121 120 113 100 101 92 63 42 33 20 8 6 1 355 351 345 345 344 344 340 338 336
201 227 243 229 238 230 244 236 235 80 146 248 144 132 150 157 155 156 147 137 135 133 133 130 114 111 105 78 59 40 26 20 13 4 360 353 346 343 345 344 340 340 335 333
225 232 222 232 224 232 228 242 232 264 171 225 150 158 156 130 129 134 140 146 151 152 137 127 129 134 97 75 53 36 25 19 13 5 2 356 350 349 351 345 343 340 336 332
227 245 210 214 233 211 229 215 251 175 210 222 206 308 177 165 157 157 153 163 152 130 144 135 150 114 91 75 52 32 21 16 13 8 3 357 354 351 347 345 342 336 336 334
220 233 203 230 217 207 244 319 242 227 222 275 195 252 112 161 179 174 164 162 139 150 143 153 137 110 87 73 56 27 15 14 9 5 3 358 357 349 346 346 340 341 338 337
233 209 218 228 215 230 231 217 231 219 234 243 35 248 143 174 199 168 164 162 154 148 156 160 124 120 85 62 42 22 13 14 7 3 1 1 356 349 347 348 344 342 341 339
224 214 225 222 180 191 204 195 199 215 220 265 259 284 63 90 107 160 160 162 155 159 163 163 156 102 84 61 39 9 13 15 7 2 1 360 356 351 346 347 344 339 341 340
210 207 201 191 200 186 203 207 246 254 295 134 182 26 92 88 92 130 148 162 149 160 182 150 114 114 104 71 33 15 10 12 6 2 360 358 355 350 347 346 342 340 338 336
206 211 177 194 212 209 198 232 276 301 271 281 252 98 103 117 115 138 156 145 154 169 168 134 124 122 88 62 39 18 8 10 6 1 359 356 350 348 344 343 342 339 337 335
217 208 182 177 212 223 263 216 220 230 264 270 314 97 107 148 139 147 149 150 157 161 145 131 132 109 75 41 42 16 7 7 3 360 357 354 348 345 342 341 341 339 338 337
227 231 174 166 208 196 200 231 239 309 321 310 304 85 78 148 147 151 153 150 154 149 144 130 125 96 77 28 25 15 10 3 2 358 354 352 348 343 343 342 341 341 339 338
217 220 175 199 210 247 294 212 221 236 212 172 299 92 213 127 142 147 144 144 143 142 134 129 109 99 62 32 18 19 8 2 1 356 353 352 347 345 344 344 343 343 340 340
188 223 200 165 180 206 228 246 279 324 310 285 286 104 143 130 134 136 138 138 138 137 124 126 90 59 55 42 18 14 10 5 359 355 353 354 349 347 345 346 345 343 343 343
187 232 221 200 211 187 197 202 219 223 283 309 59 134 142 142 139 139 137 140 139 141 144 107 116 99 60 39 25 14 13 5 359 358 356 356 352 349 348 347 346 345 346 345
196 206 195 359 141 165 181 187 204 248 342 303 125 142 151 147 145 141 139 140 144 135 138 117 102 81 68 40 27 18 11 5 1 360 358 355 352 350 351 349 347 348 349 349
201 154 158 110 129 142 153 160 122 111 112 104 126 134 139 137 134 139 143 146 144 140 125 117 99 85 67 43 23 18 11 7 3 2 359 355 352 353 354 350 350 352 351 353
168 164 173 135 146 137 155 160 147 124 126 140 145 141 139 141 144 147 146 147 136 132 123 116 98 87 70 52 28 19 12 6 4 3 359 356 356 355 356 353 356 356 355 354
171 176 148 157 151 206 96 126 133 129 122 122 120 139 144 142 138 137 142 134 131 128 121 112 106 102 77 51 29 19 13 9 7 4 360 359 358 359 358 358 0 358 357 356
176 157 134 158 188 113 154 183 155 145 135 131 138 143 138 133 124 124 122 125 124 122 117 112 111 101 79 49 33 23 15 13 10 5 2 2 2 2 0 2 1 360 358 358
168 182 161 177 176 201 161 161 162 126 140 142 148 143 141 145 147 136 126 122 121 119 121 121 113 102 79 53 42 30 22 16 12 5 4 5 6 6 5 4 4 3 2 2
176 176 166 167 183 90 135 155 150 202 140 153 150 146 152 177 149 137 130 125 126 125 122 122 111 96 77 60 45 39 27 21 11 7 9 12 13 12 10 10 10 9 8 8
168 171 192 172 178 155 153 152 179 111 140 146 145 151 137 115 122 131 131 131 130 128 130 122 113 97 77 60 53 45 33 20 15 13 15 19 19 19 17 18 17 17 14 13
183 187 167 359 95 138 153 162 125 143 143 146 147 134 132 131 132 133 134 135 136 134 131 126 116 105 85 68 56 47 29 21 18 18 22 26 25 28 26 25 23 23 19 15
112 136 105 148 117 123 123 124 135 142 143 144 134 137 139 135 136 135 138 138 138 137 135 130 124 115 97 77 62 47 28 21 27 29 30 32 31 29 33 34 31 27 23 19
145 156 128 106 140 125 150 144 139 139 137 130 138 141 139 138 140 141 140 141 141 138 138 137 128 119 99 84 65 46 32 30 40 41 39 37 33 30 29 26 28 25 14 16
171 149 176 177 167 161 151 142 144 140 139 142 141 138 141 142 142 143 141 143 143 142 143 137 128 126 113 95 77 56 46 42 45 49 47 35 37 32 26 21 16 6 10 7
Height
756 766 763 751 745 740 743 751 753 750 764 770 786 809 831 836 846 852 857 861 865 868 871 872 872 872 872 871 870 871 870 869 867 864 862 860 858 856 854 853 852 850 848 845
753 762 741 735 736 746 750 757 756 757 764 769 791 811 830 838 845 849 856 861 865 869 872 872 873 872 871 871 872 872 872 871 869 866 864 862 859 856 855 853 851 849 847 844
749 739 733 737 745 752 753 755 751 760 767 762 784 821 835 841 845 850 857 861 864 866 869 872 872 871 870 872 873 873 873 872 871 869 866 864 860 857 855 854 851 849 846 843
741 730 741 743 749 747 759 739 745 753 771 773 769 777 808 837 846 851 857 859 859 867 870 871 870 868 871 873 875 875 874 874 873 871 869 866 863 860 858 855 852 849 845 842
744 740 741 748 743 737 749 740 745 746 760 754 761 766 800 817 839 846 854 856 861 867 869 870 866 868 871 873 875 875 875 875 874 873 871 869 866 863 859 856 853 848 844 841
734 718 727 733 730 732 730 747 749 750 753 772 753 777 794 803 804 833 850 857 862 866 869 867 867 869 872 874 876 876 875 876 875 874 872 870 867 864 861 857 853 849 844 840
739 732 724 724 741 737 742 753 771 777 767 772 754 756 778 781 780 813 840 853 858 865 867 864 865 869 874 875 877 875 876 875 875 874 872 870 868 864 861 858 853 849 844 840
745 753 729 727 733 743 743 744 754 785 767 761 746 761 792 790 790 812 839 845 852 863 863 860 866 871 874 876 877 877 876 875 875 874 873 870 868 865 862 858 854 850 845 841
731 734 715 721 718 724 740 747 725 748 744 762 745 788 792 791 810 824 831 839 851 858 856 861 869 872 874 876 878 879 877 876 876 875 873 871 868 865 862 858 854 850 846 841
710 735 712 720 717 718 726 722 754 746 772 773 745 762 803 803 812 821 828 837 847 850 856 863 869 872 875 877 877 879 878 877 877 875 873 871 868 865 861 857 853 849 845 840
706 714 729 722 734 730 736 737 735 732 745 765 768 788 779 793 804 817 825 834 841 849 856 864 869 872 876 877 878 879 879 878 877 876 874 871 868 864 861 857 853 849 844 839
709 717 734 734 713 707 714 724 725 752 753 750 761 792 788 791 804 814 824 833 842 850 857 865 869 873 876 878 879 879 880 879 878 876 874 871 868 864 861 857 853 849 844 839
709 723 735 737 733 719 725 722 721 729 738 754 766 797 788 796 806 816 827 836 845 853 860 866 871 875 877 879 881 881 881 881 879 876 874 871 868 864 860 857 853 848 844 839
708 713 720 738 730 720 732 731 727 734 751 746 756 793 798 804 812 821 830 840 848 854 862 867 875 878 879 882 883 882 883 882 880 877 874 872 869 865 861 857 853 848 844 839
709 725 717 714 704 710 724 730 734 738 742 756 775 784 795 804 814 823 833 841 849 856 861 868 873 877 881 883 884 885 884 883 880 878 875 873 870 866 862 858 853 849 844 839
708 729 722 732 718 720 734 732 735 742 747 751 763 788 791 803 815 827 835 842 849 856 862 870 875 880 883 885 886 886 885 884 881 879 876 874 871 867 864 859 854 850 845 840
715 723 727 746 729 734 757 745 743 748 749 752 778 787 796 810 819 827 835 841 849 858 866 872 878 883 885 887 887 887 886 884 882 880 878 875 872 869 865 860 856 851 846 840
712 715 719 742 739 775 751 740 740 750 751 752 768 788 799 809 818 826 834 842 852 861 869 876 881 886 887 888 889 888 887 885 884 882 880 877 874 870 867 862 858 853 848 842
695 711 734 753 752 754 756 750 749 756 768 762 778 790 799 810 821 832 838 847 856 865 873 879 884 887 889 890 890 889 888 887 886 884 882 879 876 873 869 864 860 855 849 843
697 701 720 740 756 769 728 738 737 748 780 767 778 789 803 814 823 837 845 854 863 870 877 882 886 889 891 892 891 891 891 890 888 886 884 881 878 875 871 867 862 858 852 846
716 713 728 736 748 743 725 733 737 769 761 766 777 792 805 807 801 835 849 859 868 874 880 884 887 890 893 894 893 893 893 892 891 889 886 883 880 877 874 870 865 860 855 849
712 720 722 725 739 760 726 737 753 749 752 762 780 794 803 816 826 839 852 862 870 877 882 886 889 893 895 895 894 895 895 895 893 891 888 885 883 879 876 873 869 864 859 853
711 703 714 722 724 720 726 734 742 747 755 770 781 794 810 821 832 844 855 865 872 878 883 887 890 894 897 897 897 898 898 897 895 892 890 888 886 882 880 877 873 869 864 859
709 704 719 724 731 730 738 739 744 752 761 772 785 800 812 823 836 848 857 866 873 879 883 888 892 895 898 899 899 899 899 897 895 894 892 890 888 885 883 881 878 875 871 867
699 707 721 733 735 745 745 744 748 758 768 780 795 804 815 826 840 848 857 866 873 879 884 889 893 897 900 901 901 901 900 898 896 895 894 891 890 888 885 883 881 879 877 873
699 706 717 724 730 730 743 746 753 762 775 787 796 809 821 829 839 849 858 867 873 880 885 890 895 900 901 902 903 903 901 900 898 897 896 895 892 890 888 886 883 880 877 873